Location: Hartman Creek State Park
(44.3257°N, 89.2134°W)
Time: 14:32:40
(UTC-06:00)

Cosmos 2263 Rocket - Visible Passes

Search period start: 02 March 2015 00:00
Search period end: 12 March 2015 01:00
Orbit: 823 x 850 km, 71.0° (Epoch: 01 March)

Date Brightness Start Highest point End Pass type
(mag) Time Alt. Az. Time Alt. Az. Time Alt. Az.
02 Mar 3.1 04:11:19 15° S 04:15:46 46° ESE 04:21:12 10° NE visible
02 Mar 3.0 05:54:54 10° WSW 05:59:56 31° NW 06:04:56 10° N visible
03 Mar 3.3 03:56:07 23° SSE 03:59:09 42° ESE 04:04:31 10° NE visible
03 Mar 3.0 05:38:06 10° WSW 05:43:14 33° NW 05:48:20 10° N visible
04 Mar 3.4 03:40:41 30° SE 03:42:32 39° ESE 03:47:49 10° NE visible
04 Mar 2.9 05:22:26 15° WSW 05:26:33 35° NW 05:31:44 10° N visible
05 Mar 3.4 03:25:06 34° SE 03:25:55 36° ESE 03:31:06 10° NE visible
05 Mar 2.8 05:06:50 22° WSW 05:09:52 38° NW 05:15:08 10° NNE visible
06 Mar 3.6 03:09:22 33° ESE 03:09:22 33° ESE 03:14:23 10° NE visible
06 Mar 2.7 04:51:05 30° W 04:53:11 40° NW 04:58:32 10° NNE visible
07 Mar 3.8 02:53:32 29° E 02:53:32 29° E 02:57:39 10° NE visible
07 Mar 2.6 04:35:15 38° W 04:36:30 43° WNW 04:41:56 10° NNE visible
08 Mar 4.1 03:37:37 25° ENE 03:37:37 25° ENE 03:40:56 10° NE visible
08 Mar 2.5 05:19:20 45° WNW 05:19:50 47° WNW 05:25:19 10° NNE visible
09 Mar 4.4 03:21:38 21° ENE 03:21:38 21° ENE 03:24:10 10° NE visible
09 Mar 2.5 05:03:20 50° NW 05:03:20 50° NW 05:08:42 10° NNE visible
09 Mar 4.2 06:47:03 10° NW 06:48:40 11° NW 06:50:02 10° NNW visible
10 Mar 4.6 03:05:35 17° ENE 03:05:35 17° ENE 03:07:25 10° NE visible
10 Mar 2.6 04:47:17 50° NNW 04:47:17 50° NNW 04:52:05 10° NNE visible
10 Mar 4.2 06:29:51 10° WNW 06:31:55 12° NW 06:33:46 10° NNW visible
11 Mar 4.8 02:49:29 14° ENE 02:49:29 14° ENE 02:50:38 10° NE visible
11 Mar 2.8 04:31:11 46° NNW 04:31:11 46° NNW 04:35:28 10° NNE visible
11 Mar 4.1 06:12:54 10° WNW 06:15:10 12° NW 06:17:23 10° NNW visible
